Regional Weather Roundup
Issued by NWS

Home | Current Version | Previous Version | Graphics & Text | Print | Product List | Glossary On
Versions: 1 2 3 4 5 6 7 8 9 10 11 12 13 14 15 16 17 18 19 20 21 22 23 24 25 26 27 28 29 30 31 32 33 34 35 36 37 38 39 40 41 42 43 44 45 46 47 48 49 50
000
ASUS43 KMKX 120111
RWRWI

WISCONSIN REGIONAL WEATHER ROUNDUP
NATIONAL WEATHER SERVICE MILWAUKEE/SULLIVAN WI
800 PM CDT FRI JUL 11 2014

NOTE: "FAIR" INDICATES FEW OR NO CLOUDS BELOW 12,000 FEET WITH NO
SIGNIFICANT WEATHER AND/OR OBSTRUCTIONS TO VISIBILITY.

WIZ001-002-006>008-014>016-023>028-120200-
NORTHWEST WISCONSIN

CITY           SKY/WX    TMP DP  RH WIND       PRES   REMARKS
SUPERIOR ARPT  PTCLDY    74  69  85 SW8       29.94R
ASHLAND        MOCLDY    72  64  76 S12G20    29.96S
HAYWARD        CLOUDY    71  66  84 S9        30.00S
SIREN          CLOUDY    73  68  86 S5        29.98S
RICE LAKE      CLOUDY    72  65  80 S7        30.02S
LADYSMITH      CLOUDY    72  65  78 S3        30.04S
EAU CLAIRE     CLOUDY    75  67  76 S8        30.00R
MENOMONIE      CLOUDY    74  68  80 SE3       30.01R
NEW RICHMOND   CLOUDY    74  67  81 CALM      29.99F
OSCEOLA        MOCLDY    75  69  80 SE6       30.01R
$$

WIZ003>005-009-010-017-018-120200-
NORTH CENTRAL WISCONSIN

CITY           SKY/WX    TMP DP  RH WIND       PRES   REMARKS
WOODRUFF       CLOUDY    72  63  72 SW9       30.03F
RHINELANDER    CLOUDY    70  59  68 S9        30.06S
EAGLE RIVER    MOCLDY    70  56  62 SW5       30.03F
LAND O LAKES   PTCLDY    70  59  67 SW7       30.04S
PHILLIPS       CLOUDY    70  63  78 S9        30.03S
TOMAHAWK       CLOUDY    69  59  71 CALM      30.06S
MEDFORD        CLOUDY    69  62  77 S6        30.06R
MERRILL        CLOUDY    71  58  64 SW7       30.06S
$$

WIZ029-030-035-036-043>047-120200-
CENTRAL WISCONSIN

CITY           SKY/WX    TMP DP  RH WIND       PRES   REMARKS
WAUSAU         CLOUDY    72  56  57 S9        30.06R
MOSINEE        CLOUDY    70  57  64 S10       30.08R
MARSHFIELD     MOCLDY    70  61  73 S8        30.06S
STEVENS POINT  CLOUDY    71  55  58 S10       30.08R
WAUPACA        PTCLDY    73  56  55 S6        30.08S
WAUTOMA        PTCLDY    73  59  61 S5        30.08S
WISC RAPIDS    CLOUDY    73  59  61 S9        30.08R
CAMP DOUGLAS   NOT AVBL
$$

WIZ011>013-019>022-031-037>040-048>050-120200-
NORTHEAST WISCONSIN

CITY           SKY/WX    TMP DP  RH WIND       PRES   REMARKS
ANTIGO         CLOUDY    67  57  70 S7        30.08R
STURGEON BAY   CLOUDY    70  54  56 S9G16     30.09S
GREEN BAY      MOCLDY    75  53  46 S8        30.08S
MANITOWOC      CLOUDY    69  53  56 S9        30.10F
APPLETON       MOCLDY    73  54  49 S8        30.09F
CLINTONVILLE   MOCLDY    73  54  49 S8        30.06F
OSHKOSH        PTCLDY    71  58  63 S7        30.09S
$$

WIZ032>034-041-042-053>061-120200-
SOUTHWEST WISCONSIN

CITY           SKY/WX    TMP DP  RH WIND       PRES   REMARKS
LA CROSSE      CLOUDY    77  65  66 S9        30.03R
SPARTA         CLOUDY    74  63  68 S3        30.06R
VIROQUA        FAIR      72  64  74 S8        30.07S
BOSCOBEL       CLOUDY    76  64  66 VRB3      30.06S
PRAIRIE DU CHI CLOUDY    74  64  69 E3        30.04S
PLATTEVILLE    MOCLDY    73  64  75 SE9       30.09S
$$

WIZ056-057-062-063-064-067-068-120200-
SOUTH CENTRAL WISCONSIN

CITY           SKY/WX    TMP DP  RH WIND       PRES   REMARKS
BARABOO/DELLS  PTCLDY    71  58  64 S8        30.09R
LONE ROCK      CLEAR     76  65  68 SE3       30.07S
WATERTOWN      MOCLDY    71  56  58 CALM      30.10S
MADISON        MOCLDY    74  57  55 S8        30.10R
MIDDLETON      CLOUDY    75  57  54 S7        30.10S
MONROE         CLOUDY    72  63  73 SE5       30.11R
JANESVILLE     MOCLDY    73  57  56 S5        30.10R
$$

WIZ051-052-058>065-066-070>072-120200-
SOUTHEAST WISCONSIN

CITY           SKY/WX    TMP DP  RH WIND       PRES   REMARKS
MILWAUKEE      MOCLDY    71  54  54 S6        30.12S
WAUKESHA       PTCLDY    73  54  49 CALM      30.12F
MILWAUKEE/TIMM CLEAR     72  48  43 S6        30.12F
RACINE         MOCLDY    72  57  59 SE3       30.14S
BURLINGTON     MOCLDY    70  58  66 S3        30.12S
KENOSHA        CLOUDY    73  58  59 SE3       30.12S
FOND DU LAC    CLOUDY    73  56  54 S7        30.10S
SHEBOYGAN      CLOUDY    71  53  52 S8        30.11S
WEST BEND      CLOUDY    70  50  49 SE6       30.11F
JUNEAU         MOCLDY    72  42  34 SE6       30.12S
$$

LSZ147-162-120200-
LAKE SUPERIOR

STATION/POSITION TIME  TEMP    WIND        PRES    WAVE
                       AIR SEA DIR/SP/G            HT/PER
                 (UTC) (F)     (DEG/KT/KT) (MB)    (FT/S)
W MID LAKE BUOY  0050   49 38  210/  8/  8 1013.3F   1/ 4
PORT WING        0000   74     210/  9/ 12 1013.5
SAXON HARBOR     0040          190/ 10/ 14 1014.2S
$$

LMZ867-665-643>646-120200-
LAKE MICHIGAN

STATION/POSITION TIME  TEMP    WIND        PRES    WAVE
                       AIR SEA DIR/SP/G            HT/PER
                 (UTC) (F)     (DEG/KT/KT) (MB)    (FT/S)
N MID LAKE BUOY  0050   59 53  200/ 14/ 16 1018.3R   3/ 5
NORTHPORT PIER   0000   68     160/  7/ 15 1017.9F
KEWAUNEE LAKESHO 0000   57     180/ 12/ 13 1019.8F
SHEBOYGAN LAKESH 0100   70     180/ 14/ 15 1019.4F
PORT WASHINGTON  0000   65     190/  6/  9 1020.3
MILWAUKEE LAKESH 0000   68     150/  7/  8   N/A
S MID LAKE BUOY  0050   65 63  120/  6/  8 1020.1F   0
KENOSHA   LAKESH 0100   65     170/  5/  7   N/A
$$

TC  - TEMPERATURE IN CELSIUS
VSB - VISIBILITY IN STATUTE MILES
WCI - WIND CHILL INDEX
HX  - HEAT INDEX




USA.gov is the U.S. government's official web portal to all federal, state and local government web resources and services.